Погода в Нижнеангарске

Погода в Нижнеангарске : погода сейчас, прогноз погоды и архив. Всё, что Вы хотите узнать о погоде в Нижнеангарске!

Поиск расширенной информации на нашем сайте:

Другие новости

Новости СМИ2

Главная страница сайта

Новости сайта

03.07.2017

Напоминаем, что на нашем специализированном сайте Метеоцентр.Азия вы можете получить высокодетализированные автоматические прогнозы погоды по пунктам России, СНГ и мира в авиационном формате (включающие направление и скорость ветра, видимость, явления погоды, количество и форму облачности, нижнюю и верхнюю границу облачности).


Погода в Нижнеангарске - сегодня

Время (UTC), дата Ветер
(°,м/с) 
Видим.   Явления Облачность Т
(°С)
Тd
(°С)
f(%) Тe
(°С)
Pmin
(гПа)
dP
(гПа)
Po
(мм)
O2
(г/м3)
Тmin Tmax R s Состояние
почвы
15 17.02.18 тихо ()   н/о    ясно 
-24.7 -27.6 77 -25  1037.1  0.2  729  325           
18 17.02.18 тихо ()   н/о    ясно 
-25.9 -28.1 82 -26  1037.8  0.4  729  326           
21 17.02.18 тихо ()   н/о    1/0 верхняя 
[Ci fib]
-25.9 -28.2 81 -26  1037.1  -0.6  729  326           
00 18.02.18 тихо ()   20000 м    8/0 средняя, верхняя 
[Ac trans|Ci fib]
-28.2 -30.9 78 -28  1037.9  0.1  729  329  -29      44  равномерный
сухой снег
100% 
03 18.02.18 090 (В) 20000 м    10/0 средняя, верхняя 
[Ac trans|Ci fib]
-23.9 -26.5 79 -24  1036.8  0.1  729  324  -29.6         
06 18.02.18 120 (ЮВ) 20000 м    10/0 средняя, верхняя 
[Ac trans|Ci fib]
-24.1 -26.8 78 -25  1035.9  -1  728  323           
09 18.02.18 тихо ()   20000 м  осадки на расстоянии  10/0 средняя 
[Ac As]
-21.1 -23.7 80 -21  1034.7  -0.3  728  319           
12 18.02.18 310 (СЗ) н/о  слаб. снег  10/0 средняя 
[As op]
-20.4 -22.5 83 -21  1034.8  0.2  728  319    -20.1  0.0     
15 18.02.18 320 (СЗ) н/о  слаб. снег  10/0 средняя 
[As op]
-20.9 -22.9 84 -21  1034.7  -0.2  728  319           
18 18.02.18 030 (СВ) н/о  {снег}  8/0 средняя, верхняя 
[Ac trans|Ci fib]
-22.2 -24.2 84 -23  1034.6  -0.4  727  321           
21 18.02.18 тихо ()   н/о    10/0 средняя, верхняя 
[Ac trans|Ci fib]
-21 -23 84 -21  1033.7  -0.6  727  319           
00 19.02.18 тихо ()   10 км  слаб. снег  10/0 средняя 
[As op]
-21.2 -23.2 84 -21  1033.6  -0.1  727  319  -22.2    0.2  44  равномерный
сухой снег
100% 
03 19.02.18 250 (З) 10 км  слаб. снег  10/0 средняя 
[As op]
-17.7 -20.6 78 -18  1033  0.3  727  315           
06 19.02.18 200 (Ю) 10 км  слаб. снег  10/0 средняя 
[As op]
-16.6 -19.3 80 -22  1031.7  -0.9  726  313           
09 19.02.18 180 (Ю) 10 км  слаб. снег  10/0 средняя 
[As op]
-16.7 -19.2 81 -19  1031.8  726  313           
12 19.02.18 тихо ()   н/о  слаб. снег  10/0 средняя 
[As op]
-17.4 -19.6 83 -17  1032.2  0.2  727  314    -16.2  0.4     
15 19.02.18 тихо ()   н/о  слаб. снег  10/0 средняя 
[As op]
-17.5 -19.7 83 -18  1031.5  -0.7  726  314           
18 19.02.18 240 (ЮЗ) н/о  {снег}  10/0 средняя, верхняя 
[Ac trans|Ci fib]
-17.4 -20.3 78 -18  1030.4  -1  725  314           
21 19.02.18 330 (СЗ) н/о    8/0 средняя, верхняя 
[Ac trans|Ci fib]
-19.3 -21.9 80 -22  1029.9  -0.9  725  316           
00 20.02.18 тихо ()   20000 м  слаб. снег  10/0 средняя 
[Ac As]
-18.8 -20.8 84 -19  1029.2  -0.5  724  315  -20.1    0.2  45  равномерный
сухой снег
100% 
03 20.02.18 210 (ЮЗ) 20000 м  осадки на расстоянии{снег}  10/0 средняя, верхняя 
[Ac trans|Ci sp]
-16.3 -19.1 79 -20  1027.8  -0.7  724  312           
06 20.02.18 200 (Ю) 20000 м  {снег}  10/0 средняя, верхняя 
[Ac trans|Ci sp]
-15.8 -19.5 73 -20  1025.4  -2.1  722  310           
09 20.02.18 060 (СВ) 10 км  слаб. снег  10/0 средняя 
[As op]
-14.9 -18.1 77 -17  1023.6  -1.5  721  309           
12 20.02.18 030 (СВ) н/о  слаб. снег  10/0 средняя 
[As op]
-14.4 -16.4 85 -14  1022.2  -1.2  720  308    -13.1  0.0     
15 20.02.18 290 (З) н/о  слаб. снег  10/0 средняя 
[As op]
-14.2 -17.6 75 -14  1021.7  -0.5  720  307           
Время (UTC), дата Ветер
(°,м/с) 
Видим.   Явления Облачность Т
(°С)
Тd
(°С)
f(%) Тe
(°С)
Pmin
(гПа)
dP
(гПа)
Po
(мм)
O2
(г/м3)
Тmin Tmax R s Состояние
почвы

Для получения пояснительной информации подведите курсор к названию столбца.

ПОГОДА в Нижнеангарске - архив

Всё, что Вы хотите узнать о погоде в Нижнеангарске - удобно и подробно!

Выберите нужную дату (начиная с 1 января 2015* года) и нажмите кнопку "Найти".
Будут отображены архивные сводки погоды по пункту Нижнеангарск, начиная с указанной даты.


Отображать данные в формате CSV (для использования в таблицах Excel)


Внимание! Наш архив погоды предназначен исключительно для личного некоммерческого использования в познавательных целях. Если Вам необходимы официальные справки о состоянии погоды (для производственных, юридических, коммерческих и т.п. целей), обращайтесь в органы Росгидромета.

*Примечание: данная дата относится к архиву по метеостанциям СССР (Россия, СНГ, Балтия).
Архив по метеостанциям Зарубежной Европы и Азии (кроме Китая) хранится 10 дней, по другим регионам земного шара (Китай, Африка, Америка, Австралия, Океания) - 1 день.

Нижнеангарск - район местоположения метеостанции


Название, широта, долгота, высота метеостанции:
Нижнеангарск 55.8°ш. 109.6°д. 487 м над ур. моря [Российская Федерация]

Дополнительная информация

В oтличие oт бoльшинства пoгoдных сайтoв мы публикуем пoдрoбную метеoинфoрмацию в детальнoм прoфессиoнальнoм фoрмате.

Характеристики температуры и влажнoсти вoздуха измеряются на высoте 2 м в тени вдали oт зданий и деревьев.
Скoрoсть ветра измеряется на высoте 10 м (на урoвне рoста челoвека скoрoсть ветра ниже в 1.5-2 раза). Если метеoстанция нахoдится в гoрoде или в лесу, тo скoрoсть ветра занижена на 2-4 м/с пo сравнению с oткрытым местoм. Скoрoсть ветра над акватoриями крупных рек и oзёр, а также на вершинах хoлмoв на 2-5 м/с выше, чем в oбычных услoвиях.
Атмoсфернoе давление в разных тoчках местнoсти мoжет значительнo oтличаться oт давления на метеoстанции, в зависимoсти oт услoвий рельефа (при пoдъёме на 10 м давление пoнижается примернo на 1 мм рт.ст.).